[Date Prev][Date Next][Thread Prev][Thread Next][Date Index][Thread Index]
[jamsat-news:1301] jas2info #196
========================   ºÇ¿·¾ðÊó   ==============================
        Last updated ¡§Sat.15Jul.2000 ¡¡16:20 (JST) #196
====================================================================
   
  £±¡Ë¥¢¥Þ¥Á¥å¥¢ÄÌ¿®±ÒÀ±¾ðÊ󡡣ƣϥ·¥ê¡¼¥º¤Îµ°Æ»Í×ÁÇ¡¢¥Æ¥ì¥á¥È¥ê¡¢
¡¡¡¡¡¡£Ñ£Ó£Ï¤Î¾õ¶·Åù¤ò¤Þ¤È¤á¤Æ¤ß¤Þ¤·¤¿¡¥
¡¡¡¡¡¡
¡¡¡¡¡¡£Æ£Ï¡Ý£²£¹¤Î£··î£±£µÆü¡ÊÅڡˤΥƥì¥á¥È¥ê¤Ï£±£²:£´£²¡Ê£Ê£Ó£Ô¡Ë¤Î¥Ñ¥¹¤Ç¤Ï
¡¡¡¡JARL¤Î¥Û¡¼¥à¥Ú¡¼¥¸¤Î¤È¤¦¤ê¥¢¥Ê¥í¥°±¿ÍѤǤ·¤¿¡£
¡¡¡¡¤³¤ì¤Þ¤Ç¤Î¼õ¿®¤·¤¿CW¥Æ¥ì¥á¥È¥ê¤ò·ÇºÜ¤·¤Æ¤ª¤¤Þ¤¹.
¡¡AS19308C1  15Jul2000
¡¡12:42-12:55(JST)
¡¡Freq.435.802-789MHz
¡¡HI HI AE C7 88 55 1D 61 1A 0D 01 76 94 74 7F 60 94 90 B0 8D BF BD BE BE BC 
¡¡HI HI AE C7 88 55 1D 61 1A 0D 01 76             93 92 B0 7D BF BD BE BE BC 
¡¡HI HI AE C7 88 55 1D 61 1A 0D 01 76 5D 74 89 60 72 92 A1 81 BF BT BE BE BC 
¡¡HI HI AE C7 88 55 1D 61 1A 0D 01 76 6        60 93 91 B0 92 BE BD BE BE BC 
¡¡HI HI AE C7 88 55 1D 61 1A 0D 01 76 B9 69  7 41 96 92 B1 86 BE BD BE BE BC 
¡¡HI HI AE C7 88 55 1D 61 1A 0D 01 76          60 93 91 B1 8A BE BD BE BD BC 
¡¡HI HI AE 07 88 55 1D 61 1A 0D 01 76 43 8E 9E 60 93 91 B1 78 BE BC BD BD BC 
¡¡HI HI AE C7 88 55 1D 61 1A 0D 01 76 A8 70 8A 40 94 92 B0 7D BD BC BD BD BC 
¡¡HI HI AE C7 88 55 1D 61 1A 0D 01 76 6E 30 82 41 96 92 B0 7E BD BB BD BC BC 
¡¡HI HI AE C7 88 55 1D 61 1A 0D 01 76 2A 4A 86 60 94 92 A0 86 BD BC BD BC BC 
¡¡HI HI AE C7 88 55 1D 61 1A 0D 01 76 55 6A 75 60 92 90 B0 9B BD BB BC BC BC 
¡¡AS19307C1  15Jul2000
¡¡10:54-11:12(JST)
¡¡Freq.435.804-.787MHz
¡¡HI HI AE C7 88 55 1D 60 1A 0D 01 75 7A 86 8O 60 92 91 B0 90 BF BE BE BD BC 
¡¡HI HI AE C7 88 55 1D 60 1A 0D 01 76 91 7E 85 60 91 93 B0 7B BF BD BB BD BC
¡¡HI HI AE C7 88 55 1D 60 1A 0D O1 76 7A 80  9 60 94 92 B0 77 BE BE BF BD BC 
¡¡HI HI AE C7 88 55 1D 61 1A 0D 01 76 53 8A 87 60 92 91 A0 88 BE BE BF BD BB 
¡¡HI HI AE C7 88 55 1D 61 1A 0D 01 76 5B 97 88 60 93 91 B0 66 BE BE BE BC BB 
¡¡HI HI AE C7 88 55 1D 61 1A 0D 01 76 89 92 83 45 95 92 B0 83 BE BE BE BC BC 
¡¡HI HI AE C7 88 55 1D 61 1A 0D 01 76 8A 71 86 60 93 90 B0 69 BD BE BE BC BC 
¡¡HI HI AE C7 88 55 1D 61 1A 0D 01 76 56 5F 85 42 95 92 B0 6D BD BD BE BC BC 
¡¡HI HI AE C7 88 55 1D 61 1A 0D 01 76 6B 5E 60 93 91 92 B0 7E BD BE BE BC BC 
¡¡HI HI AE 07 88 55 1D 61 1A 0D 01 76 78 A1 86 60 92 90 B0 75 BD BD BE BC BC 
¡¡HI HI AE C7 88 55 1D 61 1A 0D 01 76 98 7D 7E 49 95 92 B0 A0 BD BD BE BC BC
¡¡HI HI AE C7 88 55 1D 61 1A 0D 01 76 63 40 73 61 94 91 B0 72 BD BD BE BC BC 
¡¡HI HI AE C7 88 55 1D 61 1A 0D 01 76 34 59 82 61 93 90 B0 7D BD BD BE BC BC
¡¡HI HI AE C7 88 55 1D 61 1A 1D 01 76 5E 9D 7F 60 93 91 B0 88 BD BD BD BC BC 
¡¡HI HI AE C7 88 55 1D 61 1A 0D 01 76 8B 9E 71 60 93 90 B0    BD BD BD BC BC 
¡¡HI HI AE C7 88 55 1D 61 1A 0D 01 76 96 55 86 60 92 90 B0 85 BD BC BD BC BC 
¡¡HI HI AE C7 88 55 1D 61 1A 0D 01 76 55 27 6F 60 93 90 B0 72 BD BC BD BB BC 
¡¡HI HI AE C7 88 55 1D 61 1A 0D 01 76 31 5F 87 60 93 90 B0 86 BC BC BD BC BC 
¡¡HI HI AE C7 88 51 1D 61 1A 0D 01 56 A8 92 7A 60 93 91 B0 85 BC BC BD BB BC 
¡¡HI HI AE C7 88 55 1D 61 1A 0D 01 76 90 3A 89 60 95 93 B0 61 BC BC BD BB BC 
¡¡HI HI AE C7 88 55 1D 61 1A 0D 01 76 47 23 84 60 93 90 B0 B5 BC BC BD BB BC 
¡¡HI HI AE C7 88 55 1D 61 1A 0D 01 76 38 6D 7D 60 93 91 B0 90 BC BB BC BB BC 
¡¡HI HI AE C7 88 55 1D 61 1A 0D 01 76 7B 72 6B 60 92 91 B0 81 BC BB BC BB BC 
¡¡
¡¡AS19294C1 14Jul2000
¡¡11:52-12:06(JST)
¡¡Freq.435.803-.788MHz
¡¡HI HI AE C7 88 51 1D 5F 1A 0D 01 76          60 94 92 B0 98 BE BD BE BD BC 
¡¡HI HI AE C7 88 51 1D 5F 1A 0D 01 76 4B 87 84 60 92 90 B0 9B BE BD BE BD BC 
¡¡HI HI AE C7 88 51 1D 5F 1A 0D 01 76 5B 99 81 61 94 92 B0 8F BE BD BE BD BC 
¡¡HI HI AE C7 88 51 1D 5F 1A 0A 01 76 91 8E 76 B0 9  91 B0 86 BE BD BE BD BC 
¡¡HI HI AE C7 88 51 1D 5F 1A 0D 01 76 85 66 88 5F 92 92 A2 8D BE B0 BE BD BC 
¡¡HI HI AE C7 88 51 1D 5F 1A 0D 01 76 41 64 7F 61 94 92 B0 91 BE BD BD BD BC 
¡¡HI HI AE C7 88 51 1D 5F 1A 0D 01 76 4A 93 87 60 93 91 B0 77 BE BD BD BD BC 
¡¡HI HI AE C7 88 51 1D 5F 1A 0D 01 76 8E 9E 6F 60 93 91 B0 84 BE BC BD BD BC 
¡¡HI HI AE C7 88 51 1D 5F 1A 0D 01 76 93 60 7A 60 92 90 B0    BE BC BD BD BC 
¡¡HI HI AE C7 88 51 1D 5F 1A 0D 01 76 4E 3A 77 60 92 92 B0    BE BC BD BD BC 
¡¡HI HI AE C7 88 51 1S 5F 1A 0D 01 76 33 72 88 60 92 92 A0 85 BD BC BD BC BC 
¡¡HI HI AE C7 88 51 1D 5F 1A 0D 01 76 75 AB 6A 60 92 91 A1 7F BD BC BD BC BC 
¡¡HI HI AE C7 88 51 1D 5F 1A 0D 01 76 A6 70 7F 60 92 90 9F 7D BD BC BD BC BC 
¡¡HI HI AE C7 88 51 1D 5F 1A 0D 01 76 66 27 7A 60 92 90 B0 8F BD BC BD BC BC 
¡¡HI HI AE C7 88 51 1D 5F 1A 0D 01 76 2D 4D 85 60 93 91 B0 80 BD BB BD BC BC 
¡¡HI HI AE C7 87 51 1D 5F 1A 0D 01 76 5F A6 6B 60 93 91 B0 8E BD BB BD BC BC 
¡¡HI HI AE C7 88 51 1D 5F 1A 0D 01 76 6E       60 92 91 B0 78 BD BB BC BC BC 
¡¡HI HI AE C7 88 51 1D 5F 1A 0D 01 76 85 2C 81 60 93 90 B1 91 B0 BB BC BC BC 
¡¡AS19281C1  13Jul2000
¡¡12:54-13:01(JST)
¡¡HI HI AE C7 88 51 1D 5C 1A                   60 93 91 B0 88 HD BC BD BC BB 
¡¡HI HI AE C7 88 51 1D 5C 1A 0D 01 76 4E 3B 7B 60 92 90 B0 7E BD BC BD BC BB 
¡¡HI HI AE C7 88 51 1D 5C 1A 0D 01 76 38 79 8B 60 93 90 B0 7F BC BC BD BC BB  
¡¡HI HI AE C7 88 51 1D 5C 1A 0D 01 76 7C AB 6C 60 92 90 B0 7B BC BC BD BC BB 
¡¡HI HI AE C7 88 51 1D 5C 1A 0D 01 76 71       60 92 90 B0 6C BC BB BC BC BB 
¡¡HI HI AE C7 88 51 1D 5C 1A 0D 01 76 63 27 7A 60 93 90 B0    BC BB BC BC BB 
¡¡HI HI AE 07 88 51 1D 5C 1A 0D 01 76 2F 55 85 61 93 91 B0 7E BC BB BC BB BB 
¡¡HI HI AE C7 88 51 1D 5C 1A 0D 01 76          60 93 91 B0 6F BC BB BC BB BB 
¡¡HI HI AE C7 88 51 1D 5C 1A 0D 01 76 AC 72 74 60 92 92 B0 71 BC BB BC BB BB 
¡¡AS19253C1  11Jul2000
¡¡11:10-11:21(JST)
  ¡¡                                                       7E BC BC BC BB BB 
¡¡HI HI AE C7 88 55 1D 5B 1A 0D 01 76 60 2C 84 61 94 92 B0 6C BC BC BC BB BB 
¡¡HI HI AE C7 88 55 1D 5B 1A 0D 01 76 35 7E 78 60 93 91 B0 9F BC BB BC BB BB 
¡¡HI HI AE C7 88 55 1D 5B 1A 0D 01 76 81 B7 60 60 93 91 B0 90 HF BB BC BB BB 
¡¡HI HI AE C7 88 55 1D 5B 1A 0D 01 76 A9 63 60 60 93 91 B0 78 BC BB BC BB BB 
¡¡HI HI AE 07 88 55 1D 5B 1A 0D 01 76 63 27 81 60 93 91 B1 75 BC BB BC BB BB 
¡¡HI HI AE C7 88 55 1D 5B 1A 0D 01 76 35 7E 71 60 93 91 B0 88 BC BB BB BB BB 
¡¡HI HI AE C7 88 55 1D 5B 1A 0D 01 76 84 BE 6D 61 93 91 B0 77 BC BA BB BB BA 
¡¡HI HI AE C7 88 55 1D 5B 1A 0D 01 76 
¡¡
¡¡AS19240C1  10JUl2000
¡¡12:12-12:15(JST)
¡¡Freq.435.788-.788MHz
¡¡HI HI AE C7 88 51 1D 5B 1A 0D 01 76 42 75 7C 60 92 90 9F 7D BB B8 BB BC BA 
¡¡HI HI AE C7 88 51 1D 5B 1A 0D 01 76 42 3E 89 60 92 90 B0 86 BB B8 BB BC BA 
¡¡HI HI AE C7 88 51 1D 5B 1A 0D 01 76 97 65 81 60 92 90 B0 89 BB B8 BB BC BA 
¡¡HI HI AE 07 87 51 1D 5B 1A 0D 01 76 89 AE 63 6O 92 90 B0 5A BB B8 BB BC BA
¡¡------------------------¡¡£Æ£Ï-£²£¹¤Îµ°Æ»Í×ÁÇ¡¡------------------------------        
 
¡¡¡¡¢£ µ°Æ»Í×ÁÇ£±¡§¡Öjamsat¡Ýkeps¡§£±£°£±£±¡×¤è¤ê         
¡¡¡¡¡¡¡¡¡¡¡¡¡¡¡¡¡¡¡¡SB KEPS @ AMSAT  $ORB00196.N
¡¡¡¡¡¡¡¡¡¡¡¡¡¡¡¡¡¡¡¡2Line Orbital Elements 00196.AMSAT
¡¡HR AMSAT ORBITAL ELEMENTS FOR AMATEUR SATELLITES IN NASA FORMAT
¡¡FROM WA5QGD FORT WORTH,TX July 14, 2000
¡¡SEND SUBSCRIBE/UNSUBSCRIBE TO majordomo@amsat.org ONLY
¡¡BID: ORB00196.N
¡¡FO-29
¡¡1 24278U 96046B   00194.78532805 -.00000033  00000-0  14349-5 0  3436
¡¡2 24278  98.5868  99.2804 0351296 160.6321 200.8560 13.52726771192752
 ¢£ µ°Æ»Í×ÁÇ£²¡§¡Öjamsat¡Ýkeps¡§£±£°£±£²¡×¤è¤ê                    
¡¡¡¡¡¡¡¡¡¡¡¡¡¡¡¡¡¡SB KEPS @ AMSAT  $ORB00196.O
¡¡¡¡¡¡¡¡¡¡¡¡¡¡¡¡¡¡Orbital Elements  00196.OSCAR
¡¡HR AMSAT ORBITAL ELEMENTS FOR OSCAR SATELLITES
¡¡FROM WA5QGD FORT WORTH,TX July 14, 2000
¡¡SEND SUBSCRIBE/UNSUBSCRIBE TO majordomo@amsat.org ONLY
¡¡BID: ORB00196.O
¡¡TO ALL RADIO AMATEURS BT
¡¡
  Satellite: FO-29
¡¡Catalog number: 24278
¡¡Epoch time:      00194.78532805
¡¡Element set:     343
¡¡Inclination:       98.5868 deg
¡¡RA of node:        99.2804 deg
¡¡Eccentricity:    0.0351296
¡¡Arg of perigee:   160.6321 deg
¡¡Mean anomaly:     200.8560 deg
¡¡Mean motion:   13.52726771 rev/day
¡¡Decay rate:       -3.3e-07 rev/day^2
¡¡Epoch rev:           19275
¡¡Checksum:              321
-------------------¡¡¡¡FO-29¡ÊJAS-2)¤Î¥Æ¥ì¥á¥È¥ê¤Ë´Ø¤¹¤ë¾ðÊó¡¡¡¡----------------------
¡¡
¡¡£²¡Ë£··î£±£µÆü¡ÊÅڡˤΥƥì¥á¥È¥ê¤ÎºÇ¸å¤Î¹Ô¤ÎÊÑ´¹Îã¤Ç¤¹.
¡¡AS19308C1  15Jul2000
¡¡12:42-12:55(JST)
¡¡Freq.435.802-789MHz
 
¡¡HI HI AE C7 88 55 1D 61 1A 0D 01 76 55 6A 75 60 92 90 B0 9B BD BB BC BC BC 
¡¡¡¡
¡¡¥Æ¥ì¥á¥È¥ê¡¡¡¡	Æâ   ÍÆ	¡¡´¹»»ÃÍ	ñ °Ì  
¡¡£³£Ã¡¡¼§µ¤¥»¥ó¥µ¡¼£Ú¼´=¡¡¡¡41666.7[nT]
¡¡£³£Ä¡¡¼§µ¤¥»¥ó¥µ£Ø¼´=¡¡¡¡¡¡51960.8[nT]
¡¡£´£Á¡¡ÂÀÍÛÅÅÃÓȯÀ¸ÅÅή=¡¡¡¡ 1147.1[mA]
¡¡£´£Â¡¡£Â½¼ÊüÅÅÅÅή=¡¡¡¡¡¡¡¡ -118.4[mA]
¡¡£´£Ã¡¡£Âü»ÒÅ۵=¡¡¡¡¡¡¡¡¡¡   15.7[V]
¡¡£´£Ä¡¡£ÂÃæ´Öü»ÒÅ۵=¡¡¡¡¡¡    6.9[V]
¡¡£µ£Á¡¡¥Ð¥¹Å۵¡¡¡¡¡¡¡¡=¡¡¡¡   17.3[V]
¡¡£µ£Â¡¡£Ê£Ô£ÁÁ÷¿®ÅÅÎÏ=¡¡¡¡¡¡  909.4[mW]
¡¡£µ£Ã¡¡¹½Âβ¹ÅÙ£±=¡¡¡¡¡¡¡¡¡¡    8.5[¡î]
¡¡£µ£Ä¡¡¹½Âβ¹ÅÙ£²=¡¡¡¡¡¡¡¡¡¡    9.3[¡î]
¡¡£¶£Á¡¡¹½Âβ¹ÅÙ£³=¡¡¡¡¡¡¡¡¡¡    8.9[¡î]
¡¡£¶£Â¡¡¹½Âβ¹ÅÙ£´=¡¡¡¡¡¡¡¡¡¡    8.9[¡î]
¡¡£¶£Ã	£Â¥»¥ë²¹ÅÙ=	   ¡¡¡¡ 8.9[¡î]
¡¡
 * OS¤ÏWindows 2000,Office¡¡2000¡¡¤Ë¤Æ·×»»½èÍý.
¡¡
 ===========================¡¡¡¡FO-29¡Ê¤Õ¤¸£³¹æ¡Ë¤ÎQSO¾ðÊóÅù¡¡======================
   
